Location: Góry Miechowskie
(50.3599°N, 20.1803°E)
Time: 01:16:24
(UTC+00:00)

Vanguard 2 - Pass Details

Date: 15 September 2024
Orbit: 552 x 2910 km, 32.9° (Epoch: 09 October)

Event Time Altitude Azimuth Distance (km) Brightness Sun altitude
Rises 04:48:07 0° 243° (WSW) 3,617 10.4 4.4°
Reaches altitude 10° 04:50:56 10° 228° (SW) 2,955 10.1 4.8°
Maximum altitude 04:56:32 23° 178° (S) 2,660 10.4 5.7°
Drops below altitude 10° 05:04:23 10° 133° (SE) 4,305 12.3 7.0°
Sets 05:09:37 0° 122° (ESE) 5,749 13.3 7.8°
